Terminal Aerodrome Forecast
Issued by NWS

Home | Current Version | Previous Version | Text Only | Print | Product List | Glossary On
Versions: 1 2 3 4 5 6 7 8 9 10 11 12 13 14 15 16 17 18 19
000
FTUS41 KCAR 202323
TAFPQI
TAF
KPQI 202323Z 2100/2124 VRB03KT P6SM VCSH OVC015
      TEMPO 2100/2104 -SHSN
     FM210400 VRB03KT P6SM OVC015
     FM211800 VRB03KT P6SM OVC020
      AMD LTD TO CLD VIS AND WIND=

USA.gov is the U.S. government's official web portal to all federal, state and local government web resources and services.